Georgetown, DE

12:43 AM EST on December 05, 2016 (GMT -0500)
Sussex County

Weather History for KGED - January, 2015

Change the Weather History Date:

Thursday, January 1, 2015

  Actual Average Record
Temperature  
Mean Temperature 32 °F 36 °F  
Max Temperature 44 °F 44 °F 67 °F (2005)
Min Temperature 20 °F 27 °F 11 °F (1994)
Degree Days  
Heating Degree Days 33 29  
Month to date heating degree days 33 29  
Since 1 July heating degree days 1492 1611  
Cooling Degree Days 0 0  
Month to date cooling degree days 0 0  
Year to date cooling degree days 0 0  
Moisture  
Dew Point 19 °F    
Average Humidity 55    
Maximum Humidity 77    
Minimum Humidity 33    
Precipitation  
Precipitation 0.00 in 0.09 in 2.25 in (1976)
Month to date precipitation 0.00 0.09  
Year to date precipitation 0.00 0.09  
Sea Level Pressure  
Sea Level Pressure 30.18 in    
Wind  
Wind Speed 7 mph (SW)    
Max Wind Speed 22 mph    
Max Gust Speed 25 mph    
Visibility 10 miles    
Events      
T = Trace of Precipitation, MM = Missing Value Source: NWS Daily Summary

Daily Weather History Graph

Daily Weather History Graph

Search for Another Location

Airport or City:

Trip Planner

Search our weather history database for the weather conditions in past years. The results will help you decide how hot, cold, wet, or windy it might be!

Date:

Astronomy

Jan. 01, 2015 Rise Set
Actual Time 7:19 AM EST 4:50 PM EST
Civil Twilight 6:49 AM EST 5:20 PM EST
Nautical Twilight 6:16 AM EST 5:53 PM EST
Astronomical Twilight 5:44 AM EST 6:25 PM EST
Moon 2:21 PM EST (1/1) 3:46 AM EST (1/1)
Length of Visible Light 10h 30m
Length of Day
9h 31m
Waxing Gibbous, 88% of the Moon is Illuminated
Jan 1
Waxing Gibbous
Jan 4
Full
Jan 13
Last Quarter
Jan 20
New
Jan 26
First Quarter

Hourly Weather History & Observations

Time (EST) Temp. Windchill Dew Point Humidity Pressure Visibility Wind Dir Wind Speed Gust Speed Precip Events Conditions
12:54 AM 24.1 °F - 15.1 °F 69% 30.25 in 10.0 mi Calm Calm - N/A   Clear
1:54 AM 25.0 °F 19.3 °F 16.0 °F 69% 30.25 in 10.0 mi WNW 4.6 mph - N/A   Clear
2:54 AM 21.9 °F - 15.1 °F 75% 30.24 in 10.0 mi Calm Calm - N/A   Clear
3:54 AM 27.0 °F 21.6 °F 19.0 °F 72% 30.24 in 10.0 mi West 4.6 mph - N/A   Clear
4:54 AM 25.0 °F - 18.0 °F 75% 30.23 in 10.0 mi Calm Calm - N/A   Clear
5:54 AM 25.0 °F 20.7 °F 18.0 °F 75% 30.24 in 10.0 mi SSW 3.5 mph - N/A   Clear
6:54 AM 25.0 °F 20.7 °F 17.1 °F 72% 30.24 in 10.0 mi SW 3.5 mph - N/A   Clear
7:54 AM 21.9 °F 17.2 °F 16.0 °F 78% 30.25 in 10.0 mi SSW 3.5 mph - N/A   Clear
8:54 AM 30.9 °F 26.2 °F 21.0 °F 67% 30.27 in 10.0 mi SW 4.6 mph - N/A   Clear
9:54 AM 37.0 °F 31.0 °F 21.9 °F 54% 30.27 in 10.0 mi WSW 8.1 mph - N/A   Clear
10:54 AM 39.9 °F 33.4 °F 18.0 °F 41% 30.25 in 10.0 mi WSW 10.4 mph 20.7 mph N/A   Clear
11:54 AM 43.0 °F 35.7 °F 17.1 °F 35% 30.19 in 10.0 mi SW 15.0 mph 19.6 mph N/A   Clear
12:54 PM 44.1 °F 36.8 °F 17.1 °F 34% 30.14 in 10.0 mi SW 16.1 mph - N/A   Clear
1:54 PM 44.1 °F 37.4 °F 17.1 °F 34% 30.11 in 10.0 mi SW 13.8 mph - N/A   Clear
2:54 PM 43.0 °F 36.8 °F 18.0 °F 37% 30.10 in 10.0 mi SW 11.5 mph - N/A   Clear
3:54 PM 42.1 °F 36.1 °F 19.9 °F 41% 30.10 in 10.0 mi WSW 10.4 mph - N/A   Clear
4:54 PM 39.0 °F 34.8 °F 19.9 °F 46% 30.11 in 10.0 mi SW 5.8 mph - N/A   Clear
5:54 PM 35.1 °F 30.1 °F 19.9 °F 54% 30.11 in 10.0 mi SSW 5.8 mph - N/A   Clear
6:54 PM 33.1 °F 27.7 °F 19.9 °F 59% 30.11 in 10.0 mi SSW 5.8 mph - N/A   Clear
7:54 PM 32.0 °F 25.6 °F 21.0 °F 64% 30.11 in 10.0 mi SSW 6.9 mph - N/A   Clear
8:54 PM 32.0 °F 25.6 °F 21.9 °F 66% 30.10 in 10.0 mi SSW 6.9 mph - N/A   Clear
9:54 PM 34.0 °F 27.2 °F 23.0 °F 64% 30.10 in 10.0 mi SW 8.1 mph - N/A   Clear
10:54 PM 36.0 °F 31.1 °F 24.1 °F 62% 30.11 in 10.0 mi SSW 5.8 mph - N/A   Clear
11:54 PM 37.0 °F 32.4 °F 26.1 °F 65% 30.10 in 10.0 mi SSW 5.8 mph - N/A   Clear